SCP
0 0 0 0 0 0 0 0 0 0 0 0 0 0 0 0 0 0 0 0 0 0 0 0 0 0 0 0 0 0 0 0 0 0 0 0 0 -0 -0 -0 -0 -0 -0
0 0 0 0 0 0 0 0 0 0 0 0 0 0 0 0 0 0 0 0 0 0 0 0 0 0 0 0 0 0 0 0 0 0 0 0 0 -0 -0 -0 -0 -0 -0
0 0 0 0 0 0 0 0 0 0 0 0 0 0 0 0 0 0 0 0 0 0 0 0 0 0 0 0 0 0 0 0 0 0 0 0 0 -0 -0 -0 -0 -0 -0
0 0 0 0 0 0 0 0 0 0 0 0 0 0 0 0 0 0 0 0 0 0 0 0 0 0 0 0 0 0 0 0 0 0 0 0 0 0 0 -0 -0 -0 -0
0 0 0 0 0 0 0 0 0 0 0 0 0 0 0 0 0 0 0 0 0 0 0 0 0 0 0 0 0 0 0 0 0 0 0 0 0 0 0 0 0 0 0
0 0 0 0 0 0 0 0 0 0 0 0 0 0 0 0 0 0 0 0 0 0 0 0 0 0 0 0 0 0 0 0 0 0 0 0 0 0 0 0 0 0 0
0 0 0 0 0 0 0 0 0 0 0 0 0 0 0 0 0 0 0 0 0 0 0 0 0 0 0 0 0 0 0 0 0 0 0 0 0 0 0 0 0 0 0
0 0 0 0 0 0 0 0 0 0 0 0 0 0 0 0 0 0 0 0 0 0 0 0 0 0 0 0 0 0 0 0 0 0 0 0 0 0 0 0 0 0 0
0 0 0 0 0 0 0 0 0 0 0 0 0 0 0 0 0 0 0 0 0 0 0 0 0 0 0 0 0 0 0 0 0 0 0 0 0 0 0 0 0 0 0
0 0 0 0 0 0 0 0 0 0 0 0 0 0 0 0 0 0 0 0 0 0 0 0 0 0 0 0 0 0 0 0 0 0 0 0 0 0 0 0 0 0 0
0 0 0 0 0 0 0 0 0 0 0 0 0 0 0 0 0 0 0 0 0 0 0 0 0 0 0 0 0 0 0 0 0 0 0 0 0 0 0 0 0 0 0
0 0 0 0 0 0 0 0 0 0 0 0 0 0 0 0 0 0 0 0 0 0 0 0 0 0 0 0 0 0 0 0 0 0 0 0 0 0 0 0 0 0 0
0 0 0 0 0 0 0 0 0 0 0 0 0 0 0 0 0 0 0 0 0 0 0 0 0 0 0 0 0 0 0 0 0 0 0 0 0 0 0 0 0 0 0
0 0 0 0 0 0 0 0 0 0 0 0 0 0 0 0 0 0 0 0 0 0 0 0 0 0 0 0 0 0 0 0 0 0 0 0 0 0 0 0 0 0 0
0 0 0 0 0 0 0 0 0 0 0 0 0 0 0 0 0 0 0 0 0 0 0 0 0 0 0 0 0 0 0 0 0 0 0 0 0 0 0 0 0 0 0
0 0 0 0 0 0 0 0 0 0 0 0 0 0 0 0 0 0 0 0 0 0 0 0 0 0 0 0 0 0 0 0 0 0 0 0 0 0 0 0 0 0 0
0 0 0 0 0 0 0 0 0 0 0 0 0 0 0 0 0 0 0 0 0 0 0 0 0 0 0 0 0 0 0 0 0 0 0 0 0 0 0 0 0 0 0
0 0 0 0 0 0 0 0 0 0 0 0 0 0 0 0 0 0 0 0 0 0 0 0 0 0 0 0 0 0 0 0 0 0 0 0 0 0 0 0 0 0 0
0 0 0 0 0 0 0 0 0 0 0 0 0 0 0 0 0 0 0 0 0 0 0 0 0 0 0 0 0 0 0 0 0 0 0 0 0 0 0 0 0 0 0
0 0 0 0 0 0 0 0 0 0 0 0 0 0 0 0 0 0 0 0 0 0 0 0 0 0 0 0 0 0 0 0 0 0 0 0 0 0 0 0 0 0 0
0 0 0 0 0 0 0 0 0 0 0 0 0 0 0 0 0 0 0 0 0 0 0 0 0 0 0 0 0 0 0 0 0 0 0 0 0 0 0 0 0 0 0
0 0 0 0 0 0 0 0 0 0 0 0 0 0 0 0 0 0 0 0 0 0 0 0 0 0 0 0 0 0 0 0 0 0 0 0 0 0 0 0 0 0 0
0 0 0 0 0 0 0 0 0 0 0 0 0 0 0 0 0 0 0 0 0 0 0 0 0 0 0 0 0 0 0 0 0 0 0 0 0 0 0 0 0 0 0
0 0 0 0 0 0 0 0 0 0 0 0 0 0 0 0 0 0 0 0 0 0 0 0 0 0 0 0 0 -0 0 0 0 0 0 0 0 0 0 0 0 0 0
0 0 0 0 0 0 0 0 0 0 0 0 0 0 0 0 0 0 0 0 0 0 0 0 0 0 0 -0 -0 -0 -0 -0 -0 0 0 0 0 0 0 0 0 0 0
0 0 0 0 0 0 0 0 0 0 0 0 0 0 0 0 0 0 0 0 0 0 0 0 0 0 0 0 -0 -0 0 -0 -0 0 0 0 0 0 0 0 0 0 0
Wind_Speed_500mb
54 50 44 39 34 30 26 26 25 21 16 9 3 5 11 17 22 23 24 27 30 33 35 37 38 43 47 51 54 56 58 56 65 99 94 96 94 92 91 92 94 93 90
56 51 47 42 38 34 33 30 26 21 15 9 5 8 14 18 20 22 25 29 32 35 37 39 42 47 50 54 59 63 66 67 67 85 105 101 99 93 90 87 86 84 85
57 53 49 45 43 40 37 33 28 22 17 12 11 13 15 18 22 24 28 32 37 39 41 43 45 50 55 58 62 67 69 70 71 79 102 97 99 92 91 84 76 73 73
60 57 52 50 47 43 38 35 31 26 21 20 17 18 21 23 24 25 29 33 37 41 44 46 49 53 57 60 64 66 71 74 76 80 90 96 90 88 74 78 86 79 79
65 60 56 53 50 47 44 40 34 32 28 26 23 25 28 29 30 31 33 35 38 42 47 49 52 54 57 61 64 66 67 70 72 77 81 86 89 84 83 82 84 88 89
66 62 59 58 55 52 48 44 40 37 34 32 31 33 35 37 37 36 37 40 43 47 51 52 53 55 56 60 63 64 56 54 64 68 78 85 89 86 86 86 90 94 96
67 63 64 61 58 57 54 50 47 42 38 38 37 40 42 44 42 42 44 47 51 53 54 54 56 56 56 61 64 62 59 60 53 63 75 80 92 86 82 90 91 91 93
65 64 65 63 61 59 57 54 49 47 44 42 43 46 48 47 47 47 50 53 56 56 56 56 58 57 57 63 61 64 66 67 67 64 69 80 83 88 87 87 83 90 90
64 60 62 63 62 61 59 57 53 49 47 46 45 47 50 48 48 50 54 57 58 59 57 57 58 57 57 52 49 61 73 78 71 66 63 64 67 69 69 73 78 82 82
60 57 56 58 58 57 55 56 52 51 51 50 48 49 49 48 50 53 55 58 62 62 60 60 58 57 53 38 44 61 75 72 69 75 75 71 67 63 59 52 52 60 63
44 44 46 48 50 51 52 53 53 55 57 57 56 53 52 52 52 54 55 60 62 63 63 62 58 55 48 39 43 57 59 56 67 65 68 67 65 61 55 52 49 53 65
33 35 37 40 43 47 48 51 56 60 62 64 63 60 56 56 57 56 57 58 61 64 65 62 57 52 40 43 51 54 52 52 57 59 62 63 65 67 65 60 57 55 52
30 32 35 38 42 44 48 52 57 61 64 65 65 64 62 60 61 58 59 57 59 63 62 62 50 50 57 59 55 48 49 49 51 54 58 60 62 64 62 59 58 57 55
31 34 37 41 44 49 53 56 60 64 65 67 66 66 63 64 65 64 62 60 59 61 59 58 57 58 57 59 56 47 43 43 46 49 54 57 60 62 63 60 60 60 62
38 40 44 47 50 54 57 57 60 62 62 62 62 61 63 66 62 62 67 67 63 57 54 61 64 64 65 60 52 44 42 40 44 47 51 55 59 61 60 58 59 65 64
47 49 50 51 52 54 56 56 58 58 58 58 60 64 65 67 67 66 61 48 47 47 54 71 73 72 68 58 52 46 42 42 43 46 49 51 56 58 61 61 62 64 64
50 49 50 51 50 50 51 52 53 53 56 58 59 60 58 60 53 54 52 52 53 53 70 76 75 72 69 57 50 45 44 44 43 44 47 48 51 54 56 59 63 62 63
45 48 47 45 45 45 46 47 50 55 61 62 59 63 66 67 65 60 53 51 61 66 77 75 75 69 64 54 48 45 44 44 43 43 43 43 45 50 54 56 59 62 62
40 39 38 38 38 39 43 48 55 59 63 67 69 68 65 64 67 61 51 57 68 73 77 80 75 67 60 51 47 44 44 44 43 41 40 40 42 45 48 50 56 58 59
31 32 33 35 39 44 47 48 50 53 59 63 67 68 69 70 72 66 61 61 67 73 77 78 71 62 55 48 45 44 45 42 39 36 36 35 37 39 43 46 52 56 57
27 30 35 36 36 38 41 44 48 51 53 55 56 56 55 52 60 66 64 59 58 59 58 58 57 55 49 44 44 44 44 41 35 34 32 31 33 37 36 40 46 49 52
29 27 27 29 31 34 37 38 40 42 44 47 48 48 47 49 52 55 59 58 54 57 55 51 51 51 42 42 43 44 42 37 31 32 30 28 30 31 32 36 42 44 47
20 22 25 27 28 29 31 33 35 37 39 42 44 47 47 48 48 48 47 47 51 58 53 48 50 46 40 42 42 42 40 34 29 30 29 27 26 26 26 31 35 39 45
19 21 22 24 26 27 30 31 33 37 40 42 42 42 43 43 44 45 44 42 40 38 38 41 42 42 41 40 40 40 37 33 31 27 29 28 25 23 22 24 29 34 40
18 19 20 22 23 25 27 30 33 35 38 40 42 42 42 42 42 41 40 40 38 37 38 39 41 41 39 38 38 37 35 35 33 30 28 30 28 24 21 24 28 31 34
16 17 19 21 22 25 28 31 34 36 38 39 40 40 41 42 43 42 41 41 40 40 39 38 37 36 37 38 37 37 36 35 34 32 34 34 35 31 25 25 26 29 34
Wind_Direction_500mb
189 189 191 192 192 194 198 204 205 201 200 203 230 319 342 349 343 338 335 332 332 332 333 333 333 332 332 329 325 323 320 315 306 314 312 314 312 313 314 311 311 311 309
195 195 196 199 201 203 208 206 203 204 205 211 250 309 325 329 332 331 329 326 328 328 328 327 328 327 327 325 323 322 320 316 309 309 314 315 314 315 316 316 317 315 313
200 202 203 205 207 209 210 208 207 211 215 230 259 286 311 318 318 323 324 324 325 322 320 320 322 322 322 320 320 319 317 314 312 311 312 314 314 319 323 324 325 321 319
205 207 209 214 213 214 214 213 216 219 228 240 256 283 293 300 302 308 314 320 322 318 314 314 316 315 316 317 318 317 318 316 315 313 312 314 317 323 327 326 324 323 322
210 210 215 217 216 218 218 218 221 228 236 246 260 276 283 285 289 294 303 310 314 314 311 309 309 311 313 316 318 318 315 314 315 315 311 313 316 321 320 320 314 317 318
213 217 220 220 220 222 223 224 228 233 242 252 265 276 281 281 283 288 294 301 307 311 310 307 306 308 311 315 316 314 312 312 309 308 312 309 312 312 314 312 311 309 304
218 221 224 225 225 226 227 229 234 239 248 260 272 279 281 279 281 284 289 298 304 307 306 305 305 307 311 314 316 317 318 319 305 302 302 309 312 315 316 311 309 306 301
222 225 227 229 228 229 232 234 238 246 256 267 276 280 280 280 280 283 288 294 300 304 303 302 303 306 312 316 320 322 316 311 310 308 300 298 300 305 302 300 300 296 295
227 231 231 230 231 232 234 237 243 252 262 271 276 279 281 280 279 281 285 292 298 302 301 300 300 304 312 317 313 307 307 309 314 310 305 304 302 300 297 294 291 295 299
234 237 235 232 234 236 239 242 250 258 264 265 270 275 279 280 277 279 285 293 298 298 297 297 297 302 308 303 307 302 305 316 318 317 316 316 314 312 310 304 299 300 304
234 236 235 232 235 239 243 247 254 259 261 263 266 271 276 279 278 279 285 290 294 293 291 292 293 298 301 303 300 302 309 314 308 317 318 323 325 325 320 316 308 296 296
225 225 223 226 232 237 242 250 255 258 260 262 265 270 277 280 280 282 284 286 289 288 289 288 290 294 296 290 306 309 309 308 314 317 323 329 332 333 329 321 315 309 305
215 219 225 232 238 243 249 257 259 260 261 263 266 271 277 279 280 282 285 287 287 285 285 285 292 285 286 297 304 305 307 310 314 321 325 331 334 330 328 327 324 322 318
226 232 238 243 250 255 259 261 261 262 263 265 268 272 278 281 284 289 289 288 284 281 281 280 277 283 294 301 301 303 306 311 317 321 324 329 331 332 335 336 334 333 329
234 241 247 252 258 262 264 264 265 266 266 268 270 274 279 282 286 284 284 286 285 279 282 284 284 287 293 297 295 301 306 311 314 319 324 327 332 335 335 337 340 337 333
246 250 254 258 261 264 265 264 265 267 266 268 272 277 279 280 281 283 286 275 268 268 271 269 274 281 287 291 292 299 304 309 313 315 320 327 333 335 335 338 343 335 333
251 254 257 260 261 262 264 266 267 266 271 276 279 282 283 281 277 275 270 267 266 262 260 267 273 279 286 285 287 293 300 306 311 313 316 325 330 334 337 340 340 337 335
256 259 259 259 261 264 267 272 276 282 286 285 283 285 286 286 285 280 274 267 259 253 263 266 271 277 283 280 283 289 295 301 306 309 313 320 330 334 336 341 340 339 338
255 257 260 264 268 272 277 281 283 284 287 290 292 292 292 288 284 280 275 262 263 264 265 267 271 274 274 275 280 286 292 298 303 306 310 319 329 333 337 340 342 341 341
256 260 266 272 277 280 280 282 286 290 293 295 297 299 300 299 295 290 282 272 262 259 261 266 271 269 270 273 278 284 289 294 297 299 304 315 326 333 334 342 344 343 345
261 266 271 273 277 285 292 297 299 299 300 301 304 306 305 299 295 294 293 289 280 272 269 269 266 265 267 272 278 283 287 292 294 295 300 310 323 330 332 344 341 345 346
265 272 281 289 294 297 300 301 303 306 310 312 316 317 314 304 299 292 287 282 286 284 283 279 271 267 269 274 279 282 286 289 289 288 294 304 320 326 332 343 343 346 350
276 285 291 295 298 301 304 307 311 316 320 323 323 321 319 314 311 307 301 291 278 276 279 273 269 268 271 274 278 281 283 285 282 284 290 296 314 323 331 341 344 350 353
284 291 297 301 307 312 316 319 322 324 323 321 321 319 318 314 310 308 305 301 295 288 278 272 274 276 276 276 277 277 279 279 276 281 284 285 302 314 319 327 333 342 348
298 304 309 314 317 319 322 322 321 320 321 321 321 322 321 318 314 311 307 303 297 291 285 282 279 278 277 277 276 275 273 272 273 272 278 275 279 293 303 310 322 331 342
304 310 315 314 315 318 317 316 317 317 317 318 320 320 319 318 315 313 309 305 301 295 290 285 282 282 280 277 276 275 272 270 268 267 267 276 270 278 281 291 305 316 326
Wind_Speed_850mb
54 50 44 39 34 30 26 26 25 21 16 9 3 5 11 17 22 23 24 27 30 33 35 37 38 43 47 51 54 56 58 56 65 99 94 96 94 92 91 92 94 93 90
56 51 47 42 38 34 33 30 26 21 15 9 5 8 14 18 20 22 25 29 32 35 37 39 42 47 50 54 59 63 66 67 67 85 105 101 99 93 90 87 86 84 85
57 53 49 45 43 40 37 33 28 22 17 12 11 13 15 18 22 24 28 32 37 39 41 43 45 50 55 58 62 67 69 70 71 79 102 97 99 92 91 84 76 73 73
60 57 52 50 47 43 38 35 31 26 21 20 17 18 21 23 24 25 29 33 37 41 44 46 49 53 57 60 64 66 71 74 76 80 90 96 90 88 74 78 86 79 79
65 60 56 53 50 47 44 40 34 32 28 26 23 25 28 29 30 31 33 35 38 42 47 49 52 54 57 61 64 66 67 70 72 77 81 86 89 84 83 82 84 88 89
66 62 59 58 55 52 48 44 40 37 34 32 31 33 35 37 37 36 37 40 43 47 51 52 53 55 56 60 63 64 56 54 64 68 78 85 89 86 86 86 90 94 96
67 63 64 61 58 57 54 50 47 42 38 38 37 40 42 44 42 42 44 47 51 53 54 54 56 56 56 61 64 62 59 60 53 63 75 80 92 86 82 90 91 91 93
65 64 65 63 61 59 57 54 49 47 44 42 43 46 48 47 47 47 50 53 56 56 56 56 58 57 57 63 61 64 66 67 67 64 69 80 83 88 87 87 83 90 90
64 60 62 63 62 61 59 57 53 49 47 46 45 47 50 48 48 50 54 57 58 59 57 57 58 57 57 52 49 61 73 78 71 66 63 64 67 69 69 73 78 82 82
60 57 56 58 58 57 55 56 52 51 51 50 48 49 49 48 50 53 55 58 62 62 60 60 58 57 53 38 44 61 75 72 69 75 75 71 67 63 59 52 52 60 63
44 44 46 48 50 51 52 53 53 55 57 57 56 53 52 52 52 54 55 60 62 63 63 62 58 55 48 39 43 57 59 56 67 65 68 67 65 61 55 52 49 53 65
33 35 37 40 43 47 48 51 56 60 62 64 63 60 56 56 57 56 57 58 61 64 65 62 57 52 40 43 51 54 52 52 57 59 62 63 65 67 65 60 57 55 52
30 32 35 38 42 44 48 52 57 61 64 65 65 64 62 60 61 58 59 57 59 63 62 62 50 50 57 59 55 48 49 49 51 54 58 60 62 64 62 59 58 57 55
31 34 37 41 44 49 53 56 60 64 65 67 66 66 63 64 65 64 62 60 59 61 59 58 57 58 57 59 56 47 43 43 46 49 54 57 60 62 63 60 60 60 62
38 40 44 47 50 54 57 57 60 62 62 62 62 61 63 66 62 62 67 67 63 57 54 61 64 64 65 60 52 44 42 40 44 47 51 55 59 61 60 58 59 65 64
47 49 50 51 52 54 56 56 58 58 58 58 60 64 65 67 67 66 61 48 47 47 54 71 73 72 68 58 52 46 42 42 43 46 49 51 56 58 61 61 62 64 64
50 49 50 51 50 50 51 52 53 53 56 58 59 60 58 60 53 54 52 52 53 53 70 76 75 72 69 57 50 45 44 44 43 44 47 48 51 54 56 59 63 62 63
45 48 47 45 45 45 46 47 50 55 61 62 59 63 66 67 65 60 53 51 61 66 77 75 75 69 64 54 48 45 44 44 43 43 43 43 45 50 54 56 59 62 62
40 39 38 38 38 39 43 48 55 59 63 67 69 68 65 64 67 61 51 57 68 73 77 80 75 67 60 51 47 44 44 44 43 41 40 40 42 45 48 50 56 58 59
31 32 33 35 39 44 47 48 50 53 59 63 67 68 69 70 72 66 61 61 67 73 77 78 71 62 55 48 45 44 45 42 39 36 36 35 37 39 43 46 52 56 57
27 30 35 36 36 38 41 44 48 51 53 55 56 56 55 52 60 66 64 59 58 59 58 58 57 55 49 44 44 44 44 41 35 34 32 31 33 37 36 40 46 49 52
29 27 27 29 31 34 37 38 40 42 44 47 48 48 47 49 52 55 59 58 54 57 55 51 51 51 42 42 43 44 42 37 31 32 30 28 30 31 32 36 42 44 47
20 22 25 27 28 29 31 33 35 37 39 42 44 47 47 48 48 48 47 47 51 58 53 48 50 46 40 42 42 42 40 34 29 30 29 27 26 26 26 31 35 39 45
19 21 22 24 26 27 30 31 33 37 40 42 42 42 43 43 44 45 44 42 40 38 38 41 42 42 41 40 40 40 37 33 31 27 29 28 25 23 22 24 29 34 40
18 19 20 22 23 25 27 30 33 35 38 40 42 42 42 42 42 41 40 40 38 37 38 39 41 41 39 38 38 37 35 35 33 30 28 30 28 24 21 24 28 31 34
16 17 19 21 22 25 28 31 34 36 38 39 40 40 41 42 43 42 41 41 40 40 39 38 37 36 37 38 37 37 36 35 34 32 34 34 35 31 25 25 26 29 34
Wind_Direction_850mb
189 189 191 192 192 194 198 204 205 201 200 203 230 319 342 349 343 338 335 332 332 332 333 333 333 332 332 329 325 323 320 315 306 314 312 314 312 313 314 311 311 311 309
195 195 196 199 201 203 208 206 203 204 205 211 250 309 325 329 332 331 329 326 328 328 328 327 328 327 327 325 323 322 320 316 309 309 314 315 314 315 316 316 317 315 313
200 202 203 205 207 209 210 208 207 211 215 230 259 286 311 318 318 323 324 324 325 322 320 320 322 322 322 320 320 319 317 314 312 311 312 314 314 319 323 324 325 321 319
205 207 209 214 213 214 214 213 216 219 228 240 256 283 293 300 302 308 314 320 322 318 314 314 316 315 316 317 318 317 318 316 315 313 312 314 317 323 327 326 324 323 322
210 210 215 217 216 218 218 218 221 228 236 246 260 276 283 285 289 294 303 310 314 314 311 309 309 311 313 316 318 318 315 314 315 315 311 313 316 321 320 320 314 317 318
213 217 220 220 220 222 223 224 228 233 242 252 265 276 281 281 283 288 294 301 307 311 310 307 306 308 311 315 316 314 312 312 309 308 312 309 312 312 314 312 311 309 304
218 221 224 225 225 226 227 229 234 239 248 260 272 279 281 279 281 284 289 298 304 307 306 305 305 307 311 314 316 317 318 319 305 302 302 309 312 315 316 311 309 306 301
222 225 227 229 228 229 232 234 238 246 256 267 276 280 280 280 280 283 288 294 300 304 303 302 303 306 312 316 320 322 316 311 310 308 300 298 300 305 302 300 300 296 295
227 231 231 230 231 232 234 237 243 252 262 271 276 279 281 280 279 281 285 292 298 302 301 300 300 304 312 317 313 307 307 309 314 310 305 304 302 300 297 294 291 295 299
234 237 235 232 234 236 239 242 250 258 264 265 270 275 279 280 277 279 285 293 298 298 297 297 297 302 308 303 307 302 305 316 318 317 316 316 314 312 310 304 299 300 304
234 236 235 232 235 239 243 247 254 259 261 263 266 271 276 279 278 279 285 290 294 293 291 292 293 298 301 303 300 302 309 314 308 317 318 323 325 325 320 316 308 296 296
225 225 223 226 232 237 242 250 255 258 260 262 265 270 277 280 280 282 284 286 289 288 289 288 290 294 296 290 306 309 309 308 314 317 323 329 332 333 329 321 315 309 305
215 219 225 232 238 243 249 257 259 260 261 263 266 271 277 279 280 282 285 287 287 285 285 285 292 285 286 297 304 305 307 310 314 321 325 331 334 330 328 327 324 322 318
226 232 238 243 250 255 259 261 261 262 263 265 268 272 278 281 284 289 289 288 284 281 281 280 277 283 294 301 301 303 306 311 317 321 324 329 331 332 335 336 334 333 329
234 241 247 252 258 262 264 264 265 266 266 268 270 274 279 282 286 284 284 286 285 279 282 284 284 287 293 297 295 301 306 311 314 319 324 327 332 335 335 337 340 337 333
246 250 254 258 261 264 265 264 265 267 266 268 272 277 279 280 281 283 286 275 268 268 271 269 274 281 287 291 292 299 304 309 313 315 320 327 333 335 335 338 343 335 333
251 254 257 260 261 262 264 266 267 266 271 276 279 282 283 281 277 275 270 267 266 262 260 267 273 279 286 285 287 293 300 306 311 313 316 325 330 334 337 340 340 337 335
256 259 259 259 261 264 267 272 276 282 286 285 283 285 286 286 285 280 274 267 259 253 263 266 271 277 283 280 283 289 295 301 306 309 313 320 330 334 336 341 340 339 338
255 257 260 264 268 272 277 281 283 284 287 290 292 292 292 288 284 280 275 262 263 264 265 267 271 274 274 275 280 286 292 298 303 306 310 319 329 333 337 340 342 341 341
256 260 266 272 277 280 280 282 286 290 293 295 297 299 300 299 295 290 282 272 262 259 261 266 271 269 270 273 278 284 289 294 297 299 304 315 326 333 334 342 344 343 345
261 266 271 273 277 285 292 297 299 299 300 301 304 306 305 299 295 294 293 289 280 272 269 269 266 265 267 272 278 283 287 292 294 295 300 310 323 330 332 344 341 345 346
265 272 281 289 294 297 300 301 303 306 310 312 316 317 314 304 299 292 287 282 286 284 283 279 271 267 269 274 279 282 286 289 289 288 294 304 320 326 332 343 343 346 350
276 285 291 295 298 301 304 307 311 316 320 323 323 321 319 314 311 307 301 291 278 276 279 273 269 268 271 274 278 281 283 285 282 284 290 296 314 323 331 341 344 350 353
284 291 297 301 307 312 316 319 322 324 323 321 321 319 318 314 310 308 305 301 295 288 278 272 274 276 276 276 277 277 279 279 276 281 284 285 302 314 319 327 333 342 348
298 304 309 314 317 319 322 322 321 320 321 321 321 322 321 318 314 311 307 303 297 291 285 282 279 278 277 277 276 275 273 272 273 272 278 275 279 293 303 310 322 331 342
304 310 315 314 315 318 317 316 317 317 317 318 320 320 319 318 315 313 309 305 301 295 290 285 282 282 280 277 276 275 272 270 268 267 267 276 270 278 281 291 305 316 326